Location: Poughquag
(41.6090°N, 73.6820°W)
Time: 14:47:36
(UTC-04:00)

Transit 2A - Pass Details

Date: 30 May 2020
Orbit: 592 x 967 km, 66.7° (Epoch: 05 July)

Event Time Altitude Azimuth Distance (km) Brightness Sun altitude
Rises 22:16:07 0° 334° (NNW) 3,531 11.0 -16.8°
Reaches altitude 10° 22:18:45 10° 342° (NNW) 2,629 9.9 -17.1°
Maximum altitude 22:24:37 42° 52° (NE) 1,329 7.2 -17.8°
Enters shadow 22:28:13 23° 110° (ESE) 1,942 7.6 -18.2°
